TimeICT,TemperatureF,Dew PointF,Humidity,Sea Level PressureIn,VisibilityMPH,Wind Direction,Wind SpeedMPH,Gust SpeedMPH,PrecipitationIn,Events,Conditions,WindDirDegrees,DateUTC
12:00 AM,80.6,69.8,70,29.86,6.2,East,5.8,-,N/A,,Partly Cloudy,80,2012-02-11 17:00:00
12:30 AM,80.6,69.8,70,29.86,6.2,ENE,5.8,-,N/A,,Partly Cloudy,60,2012-02-11 17:30:00
1:00 AM,81,73,70,29.84,6,Calm,Calm,,,,Scattered Clouds,,2012-02-11 18:00:00
1:00 AM,78.8,69.8,74,29.86,6.2,East,5.8,-,N/A,,Partly Cloudy,80,2012-02-11 18:00:00
1:30 AM,78.8,69.8,74,29.86,6.2,East,3.5,-,N/A,,Partly Cloudy,90,2012-02-11 18:30:00
2:00 AM,78.8,69.8,74,29.83,6.2,Calm,Calm,-,N/A,,Partly Cloudy,0,2012-02-11 19:00:00
2:30 AM,78.8,69.8,74,29.83,6.2,ENE,3.5,-,N/A,,Partly Cloudy,60,2012-02-11 19:30:00
5:30 AM,78.8,69.8,74,29.80,6.2,East,6.9,-,N/A,,Partly Cloudy,80,2012-02-11 22:30:00
6:00 AM,78.8,71.6,78,29.83,6.2,East,3.5,-,N/A,,Partly Cloudy,80,2012-02-11 23:00:00
6:30 AM,77.0,71.6,83,29.83,6.2,East,5.8,-,N/A,,Partly Cloudy,90,2012-02-11 23:30:00
7:00 AM,75,71,85,29.81,6,Calm,Calm,,,,Scattered Clouds,,2012-02-12 00:00:00
7:00 AM,77.0,71.6,83,29.83,6.2,ENE,5.8,-,N/A,,Partly Cloudy,60,2012-02-12 00:00:00
7:30 AM,78.8,71.6,78,29.86,6.2,ENE,5.8,-,N/A,,Partly Cloudy,70,2012-02-12 00:30:00
8:00 AM,80.6,71.6,74,29.86,6.2,ENE,9.2,-,N/A,,Partly Cloudy,70,2012-02-12 01:00:00
8:30 AM,82.4,71.6,70,29.89,6.2,East,9.2,-,N/A,,Partly Cloudy,80,2012-02-12 01:30:00
9:00 AM,84.2,71.6,66,29.86,6.2,East,13.8,-,N/A,,Partly Cloudy,80,2012-02-12 02:00:00
9:30 AM,84.2,71.6,66,29.89,6.2,East,13.8,-,N/A,,Partly Cloudy,80,2012-02-12 02:30:00
10:00 AM,84.2,71.6,66,29.89,6.2,East,17.3,-,N/A,,Partly Cloudy,90,2012-02-12 03:00:00
10:30 AM,86.0,71.6,62,29.89,6.2,East,15.0,-,N/A,,Partly Cloudy,90,2012-02-12 03:30:00
11:00 AM,86.0,71.6,62,29.86,6.2,East,12.7,-,N/A,,Partly Cloudy,80,2012-02-12 04:00:00
11:30 AM,87.8,71.6,58,29.86,6.2,East,20.7,-,N/A,,Partly Cloudy,90,2012-02-12 04:30:00
12:00 PM,87.8,71.6,58,29.83,6.2,East,17.3,-,N/A,,Partly Cloudy,80,2012-02-12 05:00:00
12:30 PM,89.6,71.6,55,29.83,6.2,East,18.4,-,N/A,,Partly Cloudy,90,2012-02-12 05:30:00
1:00 PM,89,71,47,29.75,6,East,13.8,,,,Scattered Clouds,80,2012-02-12 06:00:00
1:00 PM,89.6,71.6,55,29.83,6.2,East,13.8,-,N/A,,Partly Cloudy,80,2012-02-12 06:00:00
1:30 PM,89.6,71.6,55,29.80,6.2,ENE,12.7,-,N/A,,Partly Cloudy,70,2012-02-12 06:30:00
2:00 PM,91.4,71.6,52,29.80,6.2,East,13.8,-,N/A,,Partly Cloudy,90,2012-02-12 07:00:00
2:30 PM,91.4,35.6,14,29.77,6.2,East,10.4,-,N/A,,Partly Cloudy,90,2012-02-12 07:30:00
3:00 PM,91.4,71.6,52,29.77,6.2,NE,10.4,-,N/A,,Scattered Clouds,50,2012-02-12 08:00:00
3:30 PM,91.4,71.6,52,29.77,6.2,East,5.8,-,N/A,,Scattered Clouds,80,2012-02-12 08:30:00
4:00 PM,91.4,75.2,59,29.77,6.2,East,8.1,-,N/A,,Scattered Clouds,90,2012-02-12 09:00:00
4:30 PM,87.8,75.2,66,29.77,6.2,NW,10.4,-,N/A,,Mostly Cloudy,320,2012-02-12 09:30:00
5:00 PM,87.8,75.2,66,29.77,6.2,NNW,10.4,-,N/A,,Mostly Cloudy,330,2012-02-12 10:00:00
5:30 PM,86.0,75.2,70,29.77,6.2,WNW,9.2,-,N/A,,Mostly Cloudy,300,2012-02-12 10:30:00
6:00 PM,84.2,75.2,74,29.77,6.2,WNW,10.4,-,N/A,,Mostly Cloudy,300,2012-02-12 11:00:00
6:30 PM,84.2,75.2,74,29.77,6.2,NW,6.9,-,N/A,,Mostly Cloudy,310,2012-02-12 11:30:00
7:00 PM,85,74,64,29.77,6,WNW,11.5,,,Thunderstorm,Thunderstorm,300,2012-02-12 12:00:00
7:00 PM,84.2,73.4,70,29.80,6.2,NW,11.5,-,N/A,Thunderstorm,Thunderstorm,310,2012-02-12 12:00:00
7:30 PM,84.2,71.6,66,29.80,6.2,NNW,10.4,-,N/A,,Mostly Cloudy,340,2012-02-12 12:30:00
8:00 PM,82.4,73.4,74,29.83,6.2,ENE,3.5,-,N/A,,Mostly Cloudy,60,2012-02-12 13:00:00
8:30 PM,78.8,73.4,83,29.83,4.3,West,3.5,-,N/A,Rain,Light Rain,270,2012-02-12 13:30:00
9:30 PM,77.0,75.2,94,29.86,-9999.0,North,-9999.0,-,N/A,,Mostly Cloudy,0,2012-02-12 14:30:00
10:00 PM,77.0,75.2,94,29.86,6.2,Calm,Calm,-,N/A,,Scattered Clouds,0,2012-02-12 15:00:00
10:30 PM,77.0,75.2,94,29.86,6.2,Calm,Calm,-,N/A,,Mostly Cloudy,0,2012-02-12 15:30:00
11:00 PM,77.0,75.2,94,29.89,6.2,Calm,Calm,-,N/A,,Mostly Cloudy,0,2012-02-12 16:00:00
11:30 PM,77.0,75.2,94,29.89,6.2,Calm,Calm,-,N/A,,Scattered Clouds,0,2012-02-12 16:30:00